Simultaneous Nadir Overpasses (SNOs) Predictions

Prediction of SNOs between GOES-16 and METOP-B Satellite Orbit:

Table of predicted SNOs for the next 14.0 days since TLE Epoch: 11/27/2021
Index Date Time (GOES-16) GOES-16 Lat,Lon METOP-B Lat,Lon Distance(km) Time Diff (sec)
1 11/28/2021 02:13:16 0.03, -75.19 0.96, -71.08 468.76 80
2 11/29/2021 14:32:07 -0.03, -75.20 0.10, -75.63 49.65 80
3 12/02/2021 02:33:08 0.03, -75.17 0.03, -75.24 7.15 80
4 12/04/2021 14:31:20 -0.02, -75.19 -0.10, -74.80 44.10 80
5 12/06/2021 02:50:19 0.01, -75.17 -0.95, -79.39 481.68 80
6 12/07/2021 02:27:00 0.01, -75.16 0.17, -74.40 87.53 80
7 12/08/2021 14:45:52 -0.00, -75.19 0.82, -78.96 429.76 80
8 12/09/2021 14:27:52 0.00, -75.19 -0.24, -73.96 140.08 80
9 12/11/2021 02:46:52 -0.00, -75.19 -0.74, -78.56 384.17 80
